When you browse on this site, cookies collect data to enhance your experience and personalize the content and advertising you see.
Visit our Privacy Policy to learn more. By continuing to use the site, you agree to this use of cookies and data.

Hourly Weather Trujillo

Today, 27 September, Sunday

Time Temperature Precipitation Wind Pressure Humidity
00:00 +18°C° 0 mm 1 mps 646 mmHg 80%
01:00 +18°C° 0 mm 1 mps 646 mmHg 78%
02:00 +18°C° 0 mm 1 mps 646 mmHg 76%
03:00 +18°C° 0 mm 1 mps 645 mmHg 75%
04:00 +18°C° 0 mm 1 mps 645 mmHg 74%
05:00 +19°C° 0 mm 1 mps 646 mmHg 73%
06:00 +18°C° 0 mm 0 mps 647 mmHg 71%
07:00 +19°C° 0 mm 0 mps 647 mmHg 70%
08:00 +23°C° 0 mm 1 mps 648 mmHg 66%
09:00 +25°C° 0 mm 1 mps 649 mmHg 62%
10:00 +26°C° 0 mm 1 mps 649 mmHg 59%
11:00 +26°C° 0.6 mm 1 mps 648 mmHg 62%
12:00 +26°C° 0.6 mm 1 mps 648 mmHg 66%
13:00 +26°C° 0.6 mm 1 mps 647 mmHg 70%
14:00 +25°C° 1 mm 1 mps 646 mmHg 74%
15:00 +25°C° 1 mm 1 mps 645 mmHg 78%
16:00 +22°C° 1 mm 0 mps 645 mmHg 82%
17:00 +22°C° 0.5 mm 1 mps 645 mmHg 85%
18:00 +21°C° 0.5 mm 1 mps 645 mmHg 88%
19:00 +20°C° 0.5 mm 1 mps 645 mmHg 91%
20:00 +19°C° 0.2 mm 1 mps 645 mmHg 90%
21:00 +19°C° 0.2 mm 1 mps 645 mmHg 88%
22:00 +19°C° 0.2 mm 1 mps 645 mmHg 87%
23:00 +19°C° 0 mm 1 mps 645 mmHg 85%

Tomorrow, 28 September, Monday

Time Temperature Precipitation Wind Pressure Humidity
00:00 +18°C° 0 mm 1 mps 645 mmHg 83%
01:00 +18°C° 0 mm 1 mps 644 mmHg 81%
02:00 +18°C° 0 mm 1 mps 644 mmHg 79%
03:00 +18°C° 0 mm 1 mps 644 mmHg 78%
04:00 +18°C° 0 mm 1 mps 644 mmHg 77%
05:00 +19°C° 0 mm 1 mps 645 mmHg 74%
06:00 +20°C° 0 mm 1 mps 645 mmHg 72%
07:00 +19°C° 0 mm 0 mps 646 mmHg 70%
08:00 +23°C° 0 mm 1 mps 647 mmHg 66%
09:00 +25°C° 0 mm 1 mps 648 mmHg 62%
10:00 +26°C° 0 mm 1 mps 648 mmHg 58%
11:00 +27°C° 0.3 mm 1 mps 648 mmHg 59%
12:00 +27°C° 0.3 mm 1 mps 647 mmHg 61%
13:00 +27°C° 0.3 mm 1 mps 646 mmHg 62%
14:00 +26°C° 1 mm 1 mps 645 mmHg 70%
15:00 +25°C° 1 mm 1 mps 645 mmHg 77%
16:00 +24°C° 1 mm 1 mps 644 mmHg 84%
17:00 +23°C° 0.6 mm 1 mps 644 mmHg 87%
18:00 +21°C° 0.6 mm 1 mps 644 mmHg 90%
19:00 +20°C° 0.6 mm 1 mps 645 mmHg 94%
20:00 +19°C° 0.4 mm 1 mps 645 mmHg 92%
21:00 +19°C° 0.4 mm 1 mps 645 mmHg 91%
22:00 +18°C° 0.4 mm 1 mps 645 mmHg 90%
23:00 +18°C° 0 mm 1 mps 645 mmHg 89%

Day after tomorrow, 29 September, Tuesday

Time Temperature Precipitation Wind Pressure Humidity
00:00 +17°C° 0 mm 2 mps 645 mmHg 87%
01:00 +17°C° 0 mm 2 mps 644 mmHg 86%
02:00 +17°C° 0 mm 2 mps 644 mmHg 84%
03:00 +18°C° 0 mm 1 mps 644 mmHg 81%
04:00 +19°C° 0 mm 1 mps 644 mmHg 78%
05:00 +19°C° 0 mm 1 mps 645 mmHg 77%
06:00 +20°C° 0 mm 1 mps 646 mmHg 76%
07:00 +21°C° 0 mm 1 mps 647 mmHg 75%
08:00 +22°C° 1.3 mm 1 mps 647 mmHg 75%
09:00 +23°C° 1.3 mm 1 mps 648 mmHg 75%
10:00 +24°C° 1.3 mm 1 mps 648 mmHg 75%
11:00 +23°C° 3.1 mm 1 mps 648 mmHg 78%
12:00 +22°C° 3.1 mm 1 mps 647 mmHg 82%
13:00 +22°C° 3.1 mm 1 mps 646 mmHg 85%
14:00 +22°C° 0.2 mm 1 mps 646 mmHg 82%
15:00 +23°C° 0.2 mm 1 mps 645 mmHg 78%
16:00 +23°C° 0.2 mm 1 mps 645 mmHg 75%
17:00 +22°C° 0 mm 1 mps 645 mmHg 74%
18:00 +20°C° 0 mm 2 mps 645 mmHg 74%
19:00 +19°C° 0 mm 2 mps 645 mmHg 74%
20:00 +19°C° 0 mm 2 mps 646 mmHg 72%
21:00 +19°C° 0 mm 2 mps 646 mmHg 71%
22:00 +19°C° 0 mm 2 mps 646 mmHg 70%
23:00 +20°C° 0 mm 1 mps 646 mmHg 70%

30 September, Wednesday

Time Temperature Precipitation Wind Pressure Humidity
00:00 +19°C° 0 mm 1 mps 645 mmHg 70%
01:00 +19°C° 0 mm 1 mps 645 mmHg 71%
02:00 +19°C° 0 mm 1 mps 645 mmHg 71%
03:00 +19°C° 0 mm 1 mps 645 mmHg 71%
04:00 +19°C° 0 mm 1 mps 645 mmHg 72%
05:00 +20°C° 0 mm 1 mps 646 mmHg 70%
06:00 +20°C° 0 mm 1 mps 647 mmHg 69%
07:00 +21°C° 0 mm 1 mps 647 mmHg 68%
08:00 +23°C° 0 mm 1 mps 648 mmHg 62%
09:00 +25°C° 0 mm 1 mps 649 mmHg 56%
10:00 +27°C° 0 mm 1 mps 649 mmHg 50%
11:00 +28°C° 0 mm 1 mps 649 mmHg 48%
12:00 +28°C° 0 mm 1 mps 648 mmHg 47%
13:00 +29°C° 0 mm 1 mps 648 mmHg 45%
14:00 +28°C° 0.2 mm 1 mps 647 mmHg 53%
15:00 +26°C° 0.2 mm 1 mps 646 mmHg 61%
16:00 +25°C° 0.2 mm 1 mps 645 mmHg 69%
17:00 +23°C° 0.1 mm 1 mps 645 mmHg 75%
18:00 +22°C° 0.1 mm 1 mps 645 mmHg 81%
19:00 +20°C° 0.1 mm 1 mps 645 mmHg 87%
20:00 +18°C° 0 mm 2 mps 645 mmHg 83%
21:00 +18°C° 0 mm 2 mps 646 mmHg 80%
22:00 +18°C° 0 mm 2 mps 646 mmHg 76%
23:00 +18°C° 0 mm 2 mps 645 mmHg 74%

1 October, Thursday

Time Temperature Precipitation Wind Pressure Humidity
00:00 +17°C° 0 mm 2 mps 645 mmHg 73%
01:00 +17°C° 0 mm 2 mps 645 mmHg 71%
02:00 +18°C° 0 mm 1 mps 645 mmHg 71%
03:00 +18°C° 0 mm 1 mps 644 mmHg 70%
04:00 +18°C° 0 mm 1 mps 644 mmHg 70%
05:00 +19°C° 0 mm 1 mps 645 mmHg 68%
06:00 +20°C° 0 mm 1 mps 646 mmHg 67%
07:00 +21°C° 0 mm 1 mps 646 mmHg 65%
08:00 +23°C° 0 mm 1 mps 647 mmHg 60%
09:00 +25°C° 0 mm 1 mps 648 mmHg 55%
10:00 +27°C° 0 mm 1 mps 648 mmHg 50%
11:00 +27°C° 0 mm 1 mps 648 mmHg 50%
12:00 +28°C° 0 mm 1 mps 647 mmHg 51%
13:00 +28°C° 0 mm 1 mps 646 mmHg 51%
14:00 +27°C° 0.4 mm 1 mps 646 mmHg 61%
15:00 +26°C° 0.4 mm 1 mps 645 mmHg 70%
16:00 +24°C° 0.4 mm 1 mps 644 mmHg 80%
17:00 +23°C° 0.2 mm 1 mps 644 mmHg 84%
18:00 +22°C° 0.2 mm 1 mps 644 mmHg 88%
19:00 +20°C° 0.2 mm 1 mps 644 mmHg 91%
20:00 +20°C° 0.3 mm 1 mps 645 mmHg 91%
21:00 +19°C° 0.3 mm 1 mps 645 mmHg 91%
22:00 +19°C° 0.3 mm 1 mps 645 mmHg 91%
23:00 +19°C° 0.1 mm 1 mps 645 mmHg 90%

2 October, Friday

Time Temperature Precipitation Wind Pressure Humidity
00:00 +18°C° 0.1 mm 1 mps 644 mmHg 89%
01:00 +18°C° 0.1 mm 1 mps 644 mmHg 88%
02:00 +18°C° 0 mm 1 mps 644 mmHg 86%
03:00 +18°C° 0 mm 1 mps 644 mmHg 83%
04:00 +18°C° 0 mm 1 mps 644 mmHg 81%
05:00 +19°C° 0 mm 1 mps 645 mmHg 78%
06:00 +20°C° 0 mm 1 mps 645 mmHg 75%
07:00 +21°C° 0 mm 1 mps 646 mmHg 72%
08:00 +23°C° 0 mm 1 mps 647 mmHg 66%
09:00 +25°C° 0 mm 1 mps 648 mmHg 61%
10:00 +27°C° 0 mm 1 mps 648 mmHg 55%
11:00 +27°C° 0.9 mm 1 mps 647 mmHg 62%
12:00 +26°C° 0.9 mm 1 mps 646 mmHg 69%
13:00 +25°C° 0.9 mm 1 mps 645 mmHg 76%
14:00 +25°C° 2.1 mm 1 mps 645 mmHg 81%
15:00 +24°C° 2.1 mm 1 mps 644 mmHg 85%
16:00 +23°C° 2.1 mm 1 mps 644 mmHg 89%
17:00 +22°C° 1.1 mm 1 mps 644 mmHg 91%
18:00 +21°C° 1.1 mm 1 mps 644 mmHg 93%
19:00 +20°C° 1.1 mm 1 mps 645 mmHg 94%
20:00 +19°C° 0.7 mm 1 mps 645 mmHg 94%
21:00 +19°C° 0.7 mm 1 mps 646 mmHg 94%
22:00 +19°C° 0.7 mm 1 mps 646 mmHg 94%
23:00 +19°C° 0.5 mm 1 mps 646 mmHg 93%
Show more